STARLINK-33786, 63514

Orbit data source: Space-Track

STARLINK-33786, 63514 is a payload satellite owned by SpaceX/Seattle (US) in LEO that was launched on Mon, 07 Apr 2025 UTC via an FALCON 9 launch vehicle from the Air Force Western Test Range (AFWTR). Payload-class satellites include a variety of spacecraft equipped with specific instruments for various scientific and technological missions. These include communications satellites like Starlink; space stations such as the ISS; scientific satellites like the Hubble; Earth observation satellites from companies like Planet Labs, Umbra, and HawkEye 360; GPS; miniature CubeSats for education and research; and military/defense satellites.

Loading next visibility...
Identifier
63514, 2025-071X
Orbit
LEO
Country
Flag of USUS
Related business
Manufacturer
SpaceX/Seattle
Mission
Operational Commercial Communications
Bus & Motor
STARLINK V2MO, Unknown motor
Mass
575 kg wet, ~530 kg dry
Launch date (UTC)
2025-04-07 (10 months ago)
Launch vehicle
FALCON 9
Launch site
Air Force Western Test Range (AFWTR)
Object type
Payload
Rocket body
Debris
Shape & HBR
Box + 2 Pan, 17.7 m
Radar Cross Section
36.964 m², Large (>1 m²)

Expand to show TLE details & history
Last TLE update: 8 hours ago

TLE from 8 hours ago
0 STARLINK-33786
1 63514U 25071X   26037.91241574  .00032613  00000-0  11084-2 0  9996
2 63514  53.1579 283.1305 0000829 155.0009 205.1032 15.30199548 47674
Epoch: 2026-02-06T21:53Z
TLE epoch observation values (Epoch: 2026-02-06T21:53:52.719Z)
Latitude
-0.00004°
Longitude
177.61732°
Altitude
476.63 km
Speed
7.628 km/s
True Right ascension
18h 52m 31s
True Declination
0° 00' 00"
Sunlit
Object was in daylight at epoch
Visualization orbit readout
Latitude
Unknown
Longitude
Unknown
Altitude
Unknown
Speed
Unknown
Apparent Right ascension
Unknown
Apparent Declination
Unknown
Sunlit
N/A
Visualization observer readout
Local Sidereal Time
08:18:42
Azimuth
Unknown
Elevation
Unknown
Doppler factor
Unknown
Orbital elements
Apogee altitude
476.041 km
Perigee altitude
474.905 km
Semi-major axis
6,853.61 km
Eccentricity
0.00008
Inclination
53.1579°
RAAN
283.1305°
Arg. of periapsis
155.0009°
True anomaly
205.09917°
Mean anomaly
205.1032°
Eccentric anomaly
205.10119°
Mean motion
3.82529 °/min
Orbital period
94.11 mins
BSTAR
0.0011084
Loading maneuver chart data...
Computing Atmospheric mass density...
Loading historical data...
Loading historical data...
Loading historical data...
Loading historical data...
Loading historical data...
Loading historical data...
Loading historical data...

Documentation

Showing up to 5 results
|